OpenBCM V1.08-3-g9b42 (Linux)

Packet Radio Mailbox

OK0NBR

[Sao_Jose_dos_Campo]

 Login: GUEST





  
I0OJJ  > KEPS     10.11.25 00:03l 308 Lines 14704 Bytes #191 (0) @ AMSAT
BID : ORB25314.1
Read: GUEST
Subj: 2Line Orbital Elements 25314.AMSAT
Path: OK0NBR<IW0QNL<HB9ON<DK0WUE<PI8ZTM<CX2SA<EA2RCF<I0OJJ
Sent: 251110/0021z @:I0OJJ.ITA.EU [Rome] obcm1.08-11-2-gbfe9
From: I0OJJ @ I0OJJ.ITA.EU (Gustavo)
To:   KEPS @ AMSAT
X-Info: This message was generated automatically


QST de W1STR

AMSAT Orbital Elements for Amateur Satellites in TLE Format
From Orbital Analysis Office
New England Sci-Tech STEM Education Center
Natick MA November 10, 2025
To all radio amateurs


These element sets describe the orbits of various satellites 
in use by the amateur radio community. For details see:
www.amsat.org/keplerian-elements-formats/

A daily update of element sets is available at:
www.amsat.org/tle/daily-bulletin.txt
or without bulletin text:
www.amsat.org/tle/dailytle.txt


AO-07
1 07530U 74089B   25312.25133094 -.00000054  00000-0 -50232-4 0  9990
2 07530 101.9977 318.1542 0012126 191.8736 179.5815 12.53693057332838
UO-11
1 14781U 84021B   25312.67965492  .00002446  00000-0  25945-3 0  9991
2 14781  97.7764 276.2509 0007352 181.5125 178.6072 14.89965364224288
AO-27
1 22825U 93061C   25312.10485079  .00000211  00000-0  97644-4 0  9993
2 22825  98.7193  14.2822 0008934  35.5611 324.6165 14.30856830675386
FO-29
1 24278U 96046B   25312.61496829  .00000010  00000-0  48890-4 0  9990
2 24278  98.5492 186.3245 0349170 308.7070  48.3320 13.53259260443333
GO-32
1 25397U 98043D   25312.49702275  .00000135  00000-0  78425-4 0  9998
2 25397  98.9890 294.9235 0002165 112.4941 247.6466 14.24361924419916
ISS
1 25544U 98067A   25312.42041502  .00013418  00000-0  24734-3 0  9991
2 25544  51.6332 312.3676 0004093  47.8963 312.2373 15.49452868537539
NO-44
1 26931U 01043C   25312.78860913  .00000361  00000-0  16600-3 0  9990
2 26931  67.0496  94.2743 0007214 271.8084  88.2191 14.31824071258890
SO-50
1 27607U 02058C   25312.80226468  .00002855  00000-0  36060-3 0  9994
2 27607  64.5533  90.4722 0070144 302.8760  56.5607 14.82191461231783
CO-55
1 27844U 03031E   25312.23447985  .00000557  00000-0  26077-3 0  9999
2 27844  98.6777 318.5812 0010674 105.5962 254.6396 14.24133971160226
CO-57
1 27848U 03031J   25312.46547213  .00000446  00000-0  21553-3 0  9994
2 27848  98.6805 318.6983 0010428 121.0163 239.2041 14.23449008159971
RS-22
1 27939U 03042A   25312.89315512  .00002408  00000-0  38453-3 0  9996
2 27939  98.3371 126.1971 0010339 245.0551 251.3645 14.72818873183117
CO-58
1 28895U 05043F   25312.65313353  .00003589  00000-0  58327-3 0  9999
2 28895  98.2708  99.1640 0014365 181.0448 179.0730 14.71684017 69306
CO-65
1 32785U 08021C   25312.83592861  .00009681  00000-0  65999-3 0  9996
2 32785  97.8052 285.4664 0011446  62.3313 297.9074 15.06404316951987
CO-66
1 32791U 08021J   25312.44259770  .00022733  00000-0  95108-3 0  9997
2 32791  97.7443 296.4530 0004899  38.0842 322.0740 15.23579404953579
RS-30
1 32953U 08025A   25312.82910685  .00000016  00000-0  44334-4 0  9998
2 32953  82.4994 132.5162 0019923  73.4048 286.9218 12.43170320792311
SRMSAT
1 37841U 11058D   25312.01833955  .00000534  00000-0  14602-3 0  9993
2 37841  19.9730 318.0946 0011542 291.1423  87.7761 14.11493085726535
ZACUBE-1
1 39417U 13066B   25312.61043965  .00009510  00000-0  78520-3 0  9997
2 39417  97.7990 269.1274 0041211 263.5744  96.0785 14.98532084647666
Delfi-N3xt
1 39428U 13066N   25312.72658777  .00013719  00000-0  13091-2 0  9991
2 39428  97.8317 228.8538 0078740 217.6432 141.9260 14.91082471641720
GOMX-1
1 39430U 13066Q   25312.83244359  .00003363  00000-0  51710-3 0  9998
2 39430  97.6622 162.0788 0132237  65.0174 296.4701 14.68355788637567
LO-74
1 39440U 13066AA  25312.79729353  .00009856  00000-0  95656-3 0  9996
2 39440  97.8661 256.5358 0061765  38.7235 321.8387 14.91399778644112
AO-73
1 39444U 13066AE  25312.62628567  .00013506  00000-0  93692-3 0  9992
2 39444  97.8032 275.5165 0037370 230.7839 129.0068 15.05145582646433
DTUSAT-2
1 40030U 14033W   25311.91016482  .00013459  00000-0  81139-3 0  9998
2 40030  98.0727 291.4435 0006586 270.9023  89.1450 15.10884014619227
EO-80
1 40032U 14033Y   25312.18729104  .00011555  00000-0  69600-3 0  9996
2 40032  98.0614 291.1789 0007019 192.9177 167.1873 15.10953919619247
LILACSAT-2
1 40908U 15049K   25312.84151419  .00022897  00000-0  51503-3 0  9991
2 40908  97.4952 337.2083 0007565 346.2094  13.8945 15.43299669561675
IO-86
1 40931U 15052B   25151.18580175  .00001241  00000-0  78118-4 0  9996
2 40931   6.0006  24.0987 0012733 338.8432  21.1169 14.78805930523159
Horyu-4
1 41340U 16012D   25312.78196812  .00058976  00000-0  11321-2 0  9992
2 41340  30.9927 182.4383 0004690 251.2021 108.8119 15.46668960536288
Lapan A3
1 41603U 16040E   25312.84668146  .00005923  00000-0  19879-3 0  9997
2 41603  97.1429 311.6457 0012793  85.8914 274.3790 15.31153848521078
CAS-2T
1 41847U 16066G   25312.46467383  .00002185  00000-0  31462-3 0  9992
2 41847  98.4071  25.5401 0345372  78.8492 285.1317 14.44008320472932
TechnoSat
1 42829U 17042E   25312.44696653  .00005822  00000-0  43483-3 0  9997
2 42829  97.4052 114.1462 0020307 123.9978 236.3181 15.03012426453521
AO-91
1 43017U 17073E   25312.61221097  .00016820  00000-0  80622-3 0  9992
2 43017  97.4976 179.6032 0164440   8.1767 352.2080 15.07751156432091
S-Net D
1 43186U 18014G   25312.65147014  .00010079  00000-0  56217-3 0  9998
2 43186  97.5479 214.0301 0010763  65.7604 294.4751 15.13716331425364
S-Net B
1 43187U 18014H   25312.52677895  .00010431  00000-0  58198-3 0  9992
2 43187  97.5487 213.8854 0011351  61.8865 298.3512 15.13690201425347
S-Net A
1 43188U 18014J   25312.45300352  .00008754  00000-0  48881-3 0  9999
2 43188  97.5495 213.9834 0011250  62.6283 297.6092 15.13715781425332
S-Net C
1 43189U 18014K   25312.66184016  .00010394  00000-0  57978-3 0  9990
2 43189  97.5513 214.2301 0012561  55.1904 305.0507 15.13686516423910
Ten-Koh
1 43677U 18084G   25312.72792009  .00005208  00000-0  40771-3 0  9994
2 43677  98.0678 130.9956 0009306 122.8254 237.3867 15.01463793383067
PO-101
1 43678U 18084H   25312.81571828  .00003619  00000-0  30226-3 0  9997
2 43678  98.1079 134.9158 0007871 129.9619 230.2295 14.99193097383183
QO-100
1 43700U 18090A   25312.82182182  .00000145  00000-0  00000+0 0  9996
2 43700   0.0031  70.0398 0002795 198.3524 101.5274  1.00273419 25466
MinXSS-2
1 43758U 18099A   25312.62454382  .00037474  00000-0  12037-2 0  9991
2 43758  97.4842  19.5799 0009632 344.7707  15.3243 15.32146792380194
AO-95
1 43770U 18099N   25312.58997444  .00019473  00000-0  88579-3 0  9995
2 43770  97.4720   9.1464 0010812  49.2129 311.0042 15.20711276379625
SNUSat 2
1 43782U 18099AA  25312.57515450  .00015167  00000-0  76095-3 0  9996
2 43782  97.4398   4.5800 0011003 354.4911   5.6200 15.17360958379529
SnugLite
1 43784U 18099AC  25312.58559054  .00019236  00000-0  86697-3 0  9997
2 43784  97.4211   4.5231 0003065  14.5237 345.6087 15.21078757379716
ITASat 1
1 43786U 18099AE  25312.56647882  .00013666  00000-0  72660-3 0  9990
2 43786  97.4368   3.6002 0014596  45.4487 314.7935 15.15298234379455
EAGLET 1
1 43790U 18099AJ  25312.59691125  .00007938  00000-0  48316-3 0  9993
2 43790  97.4571   3.0150 0012477  34.7126 325.4916 15.10611482379009
ESEO
1 43792U 18099AL  25312.73698473  .00004066  00000-0  30371-3 0  9995
2 43792  97.4282 354.3027 0012390   9.8052 350.3413 15.03283991378673
JO-97
1 43803U 18099AX  25312.58825125  .00025655  00000-0  10192-2 0  9992
2 43803  97.4466  10.5454 0006079 343.2344  16.8692 15.25287307379900
Suomi 100
1 43804U 18099AY  25312.61488613  .00020294  00000-0  88754-3 0  9998
2 43804  97.4534   9.3639 0010765 344.8975  15.1938 15.22050392379793
ISAT
1 43879U 18111D   25312.56148339  .00057747  00000-0  15147-2 0  9995
2 43879  97.5890 230.9856 0009408  39.3026 320.8900 15.38415516376982
UWE-4
1 43880U 18111E   25312.82743016  .00036624  00000-0  11767-2 0  9994
2 43880  97.5833 228.4751 0012669  43.5973 316.6267 15.32111063376880
Sparrow
1 43881U 18111F   25312.52733191  .00059268  00000-0  14602-2 0  9995
2 43881  97.6072 234.5082 0009086  67.2143 293.0062 15.40329973377098
Prox-1
1 44339U 19036A   25312.76377650  .00020214  00000-0  23416-2 0  9993
2 44339  23.9946 139.5689 0007563  14.0895 345.9813 14.83899235340616
Taurus 1
1 44530U 19059C   25312.84462240  .00013026  00000-0  22611-2 0  9999
2 44530  98.6226  99.8551 0008792 279.0021  81.0187 14.68312833326268
Duchifat 3
1 44854U 19089C   25311.82399392  .00305527  00000-0  19006-2 0  9999
2 44854  36.9310 100.0503 0008621  22.6306 337.4839 15.75093588326586
TO-108
1 44881U 19093C   25312.83153850  .00002035  00000-0  23859-3 0  9993
2 44881  97.7791  25.2174 0015144  91.7883 268.5067 14.85983209318688
FloripaSat 1
1 44885U 19093G   25312.84387409  .00011632  00000-0  92381-3 0  9996
2 44885  97.8069  40.8888 0012022  77.4702 282.7866 15.00580729319560
RS-44
1 44909U 19096E   25312.77102687  .00000015  00000-0  25202-4 0  9993
2 44909  82.5180 126.1837 0216603 299.8637  58.1095 12.79745301274158
SALSAT
1 46495U 20068K   25312.75973230  .00014095  00000-0  55869-3 0  9998
2 46495  97.8772 298.2246 0010905   5.4820 354.6534 15.25466239281708
CSS (TIANHE-1)
1 48274U 21035A   25312.83194167  .00042043  00000-0  49295-3 0  9993
2 48274  41.4657 222.5840 0005261 347.1900  12.8804 15.60711560258735
TUBIN
1 48900U 21059X   25312.82336927  .00251716  00000-0  10408-2 0  9998
2 48900  97.6699 136.5608 0001668   1.7517 358.3758 15.85208853243913
CUTE
1 49263U 21088D   25312.52413459  .00037927  00000-0  55405-3 0  9999
2 49263  97.4383  33.9123 0006147  48.4648 311.7132 15.55535422227975
TeikyoSat 4
1 49396U 21102B   25312.83925561  .00004305  00000-0  28022-3 0  9998
2 49396  97.3942 345.7087 0011649 338.4679  21.6059 15.08407782219492
Z-Sat
1 49399U 21102E   25312.85496087  .00008126  00000-0  42563-3 0  9990
2 49399  97.3624 349.8196 0015920 298.2002  61.7623 15.15950732220037
